Creek Data

    Home     View Charts     View Raw Data     Messages

ID Distance Battery Voltage Battery Current Internal Temp Internal Humidity External Temp Solar Input rssi snr Time Stamp Record
66170 15.3 4.01 0 77 45 65 5.1 -72 8 02/13/2026 01:45 PM 48977
66169 15.3 3.94 0 76 45 63 5.1 -73 8 02/13/2026 01:30 PM 48976
66168 15.4 4.08 0 76 44 63 5.1 -73 8 02/13/2026 01:15 PM 48975
66167 15.3 3.94 0 74 44 64 5.1 -73 8 02/13/2026 01:00 PM 48974
66166 15.3 3.94 0 72 45 62 5.1 -72 7 02/13/2026 12:45 PM 48973
66165 15.3 3.95 0 71 44 62 5.1 -73 8 02/13/2026 12:15 PM 48971
66164 15.3 4.03 0 68 45 61 5.1 -72 7 02/13/2026 12:00 PM 48970
66163 15.3 3.95 0 67 45 61 5.1 -72 8 02/13/2026 11:45 AM 48969
66162 15.3 3.94 0 65 45 59 5.1 -72 7 02/13/2026 11:30 AM 48968
66161 15.3 3.94 0 63 45 59 5.1 -74 8 02/13/2026 11:15 AM 48967
66160 15.3 3.94 0 62 45 57 5.1 -73 8 02/13/2026 11:00 AM 48966
66159 15.3 3.97 0 60 45 58 5.1 -72 8 02/13/2026 10:45 AM 48965
66158 15.3 3.94 0 59 45 57 5.1 -73 8 02/13/2026 10:30 AM 48964
66157 15.3 3.94 0 57 45 55 5.1 -72 8 02/13/2026 10:15 AM 48963
66156 15.3 3.94 0 56 45 58 5.1 -72 8 02/13/2026 10:00 AM 48962
66155 15.3 4.12 0 54 45 57 5.1 -72 7 02/13/2026 09:45 AM 48961
66154 15.3 3.93 0 52 45 55 5.1 -73 7 02/13/2026 09:30 AM 48960
66153 15.3 3.93 0 50 46 55 5.1 -72 7 02/13/2026 09:15 AM 48959
66152 15.2 3.93 0 47 46 53 5.1 -72 8 02/13/2026 09:00 AM 48958
66151 15.1 3.94 0 45 46 50 5.1 -73 8 02/13/2026 08:45 AM 48957
66150 15.1 3.93 0 43 47 48 5.1 -72 8 02/13/2026 08:30 AM 48956
66149 15.1 3.93 0 40 48 45 5.1 -73 8 02/13/2026 08:15 AM 48955
66148 15.1 3.99 0 38 49 41 5.1 -72 7 02/13/2026 08:00 AM 48954
66147 15.1 4.01 26 36 49 38 4.5 -73 8 02/13/2026 07:45 AM 48953
66146 15.1 4.03 0 35 50 37 4.5 -73 9 02/13/2026 07:30 AM 48952